EDT,Max TemperatureF,Mean TemperatureF,Min TemperatureF,Max Dew PointF,MeanDew PointF,Min DewpointF,Max Humidity, Mean Humidity, Min Humidity, Max Sea Level PressureIn, Mean Sea Level PressureIn, Min Sea Level PressureIn, Max VisibilityMiles, Mean VisibilityMiles, Min VisibilityMiles, Max Wind SpeedMPH, Mean Wind SpeedMPH, Max Gust SpeedMPH,PrecipitationIn, CloudCover, Events, WindDirDegrees
2013-3-1,34,32,29,32,26,20,94,79,64,30.00,29.95,29.89,10,10,4,9,4,,0.00,8,Snow,344
2013-3-2,31,28,25,23,22,18,89,77,65,30.03,29.99,29.97,10,8,2,10,6,17,0.00,8,Snow,317
2013-3-3,29,26,24,22,18,14,86,68,56,30.06,30.02,30.00,10,9,4,14,6,23,0.00,8,Snow,292
2013-3-4,42,30,17,25,17,11,88,59,29,30.17,30.10,30.04,10,10,10,10,1,17,0.00,2,,245
2013-3-5,44,37,30,39,30,23,94,75,54,30.07,29.80,29.47,10,9,2,25,5,34,0.00,8,Rain-Snow,64
2013-3-6,37,34,30,32,30,28,95,86,75,30.19,29.92,29.54,10,7,1,14,8,25,0.00,8,Snow,273
2013-3-7,39,36,32,30,28,27,87,76,61,30.34,30.27,30.18,10,10,7,9,6,,0.00,8,,294
2013-3-8,47,38,28,28,25,22,86,66,38,30.45,30.38,30.33,10,10,10,10,3,16,0.00,2,,11
2013-3-9,59,40,22,32,26,20,93,64,26,30.39,30.26,30.11,10,10,10,9,2,,0.00,0,,128
2013-3-10,73,56,38,38,30,27,79,41,18,30.12,30.02,29.91,10,10,10,9,3,17,0.00,1,,160
2013-3-11,62,53,44,51,38,30,91,55,31,29.92,29.81,29.68,10,10,5,17,7,26,0.00,5,Rain,171
2013-3-12,43,38,33,36,30,27,85,73,62,30.02,29.95,29.83,10,10,7,15,9,21,0.00,7,,250
2013-3-13,34,31,28,31,24,17,95,76,57,30.25,30.10,29.99,10,9,1,21,7,32,0.00,7,Snow,271
2013-3-14,43,32,21,19,16,11,81,54,27,30.33,30.25,30.17,10,10,10,20,8,23,0.00,1,,268
2013-3-15,55,39,23,42,28,18,93,63,42,30.17,29.98,29.85,10,10,10,14,3,22,0.00,2,Rain,241
2013-3-16,61,48,36,50,41,31,95,80,59,30.01,29.76,29.61,10,10,2,21,6,34,0.00,6,Rain-Thunderstorm,298
2013-3-17,38,35,32,31,28,25,84,73,61,30.17,30.09,30.00,10,10,10,12,6,20,0.00,8,Rain,42
2013-3-18,52,42,33,49,40,31,95,90,83,30.03,29.79,29.65,10,9,2,20,9,29,0.00,8,Rain-Thunderstorm,132
2013-3-19,46,40,34,41,22,8,90,51,24,30.06,29.92,29.76,10,10,4,31,15,40,0.00,3,,261
2013-3-20,43,34,25,18,15,10,67,46,29,30.06,29.97,29.85,10,10,10,26,10,32,0.00,2,,265
2013-3-21,30,24,19,16,11,5,82,57,38,30.01,29.95,29.91,10,10,2,15,8,23,0.00,6,Snow,280
2013-3-22,42,30,17,19,14,11,79,55,28,30.06,30.01,29.97,10,10,10,14,5,18,0.00,0,,262
2013-3-23,51,36,21,23,19,13,88,57,22,30.07,30.00,29.93,10,10,10,10,1,,0.00,2,,325
2013-3-24,39,36,32,32,26,20,99,74,47,29.91,29.67,29.41,10,8,1,15,8,22,0.00,5,Rain-Snow-Thunderstorm,54
2013-3-25,35,34,32,34,31,30,99,92,84,29.84,29.56,29.40,10,7,2,16,6,23,0.00,8,Rain-Snow,246
2013-3-26,42,36,30,31,29,25,92,80,60,30.17,30.02,29.84,10,10,7,16,7,22,0.00,7,Rain-Snow,296
2013-3-27,42,37,32,29,26,22,86,68,46,30.26,30.22,30.17,10,10,5,17,9,24,0.00,7,,273
2013-3-28,48,36,23,26,23,20,87,60,37,30.31,30.27,30.24,10,10,10,15,6,24,0.00,3,,286
2013-3-29,53,38,22,30,25,21,92,63,32,30.31,30.26,30.19,10,10,10,15,2,20,0.00,2,,278
2013-3-30,59,43,27,32,26,19,92,58,24,30.25,30.15,29.97,10,10,10,7,1,,0.00,2,,183
2013-3-31,52,44,37,46,40,32,95,83,61,29.97,29.83,29.78,10,9,4,12,2,17,0.00,5,Rain,228